Location: Burgberg
(50.1428°N, 11.0671°E)
Time: 19:51:26
(UTC+00:00)

Cosmos 2322 Rocket - Pass Details

Date: 26 January 2020
Orbit: 831 x 852 km, 71.0° (Epoch: 16 February)

Event Time Altitude Azimuth Distance (km) Brightness Sun altitude
Rises 05:49:13 0° 228° (SW) 3,394 5.0 -11.1°
Reaches altitude 10° 05:51:45 10° 234° (SW) 2,466 4.3 -10.7°
Maximum altitude 05:57:12 46° 308° (NW) 1,129 2.5 -9.9°
Drops below altitude 10° 06:02:42 10° 21° (NNE) 2,490 4.7 -9.0°
Sets 06:05:16 0° 28° (NNE) 3,431 5.5 -8.6°
